Regional Weather Roundup
Issued by NWS Albany, NY

Home | Current Version | Previous Version | Text Only | Print | Product List | Glossary On
Versions: 1 2 3 4 5 6 7 8 9 10 11 12 13 14 15 16 17 18 19 20 21 22 23 24 25 26 27 28 29 30 31 32 33 34 35 36 37 38 39 40 41 42 43 44 45 46 47 48 49 50
000
ASUS41 KALY 231110
RWRALY

NEW YORK STATE HOURLY WEATHER ROUNDUP
NATIONAL WEATHER SERVICE ALBANY NY
700 AM EDT TUE SEP 23 2014

NOTE: "FAIR" INDICATES FEW OR NO CLOUDS BELOW 12,000 FEET WITH NO
SIGNIFICANT WEATHER AND/OR NO OBSTRUCTIONS TO VISIBILITY.

NYZ032-033-038>043-046>054-057>066-NYZ062>081-231200-
EAST


CITY           SKY/WX    TMP DP  RH WIND       PRES   REMARKS
ALBANY         PTCLDY    41  39  93 SW3       30.26R
GLENS FALLS    CLEAR     36  34  92 CALM      30.25R
POUGHKEEPSIE   CLEAR     39  36  89 CALM      30.27R
NEWBURGH       CLEAR     41  39  93 CALM      30.28R
MONTGOMERY     CLEAR     39  37  92 CALM      30.27R
WHITE PLAINS   CLEAR     44  39  82 NW7       30.26R
ISLIP          PTCLDY    52  43  71 N10       30.25R
NEW YORK CITY  PTCLDY    54  41  61 N7        30.28R
CENTRAL PARK   CLEAR     53  39  59 N6        30.31R
$$

NYZ005>009-017-018-044>046-055-056-231200-
CENTRAL


CITY           SKY/WX    TMP DP  RH WIND       PRES   REMARKS
FULTON         PTCLDY    43  40  89 S3        30.26R
SYRACUSE       PTCLDY    47  42  83 CALM      30.26R
ROME           CLEAR     38  38 100 E3        30.28R
ELMIRA         FOG       40  40 100 CALM      30.30R VSB 1/8
BINGHAMTON     CLEAR     41  38  89 W5        30.27R
MONTICELLO     CLEAR     37  37 100 W3        30.28R
$$

NYZ026>034-041>043-231200-
NORTH


CITY           SKY/WX    TMP DP  RH WIND       PRES   REMARKS
WATERTOWN      CLOUDY    51  44  77 S7        30.22R
FORT DRUM      NOT AVBL
MASSENA        CLOUDY    48  44  86 SW9       30.20R
SARANAC LAKE   CLOUDY    41  39  93 SW12      30.19R
PLATTSBURGH    CLOUDY    48  41  76 SW5       30.19R
$$

NYZ001>004-010>016-019>021-231200-
WEST


CITY           SKY/WX    TMP DP  RH WIND       PRES   REMARKS
NIAGARA FALLS  MOCLDY    48  41  76 W8        30.26R
BUFFALO        PTCLDY    47  42  83 S7        30.27R
DUNKIRK        CLEAR     49  44  83 SW8       30.30R
JAMESTOWN      CLEAR     39  37  93 S5        30.31R
WELLSVILLE     CLEAR     42  39  89 W5        30.31R
ROCHESTER      MOCLDY    43  40  89 SW8       30.27R
PENN YAN       CLEAR     45  43  93 SW7       30.28R
$$

             KEY
       WCI = WIND CHILL INDEX
       VSB = VISIBILITY
       HX  = HEAT INDEX
$$



USA.gov is the U.S. government's official web portal to all federal, state and local government web resources and services.